C/2021 B2 ( PanSTARRS )

Japanese version
Home page
Updated on May 17, 2021

---------------------------------------------------------------------

* Profile

Discovery Date January 17, 2021
Magnitude 19.9 mag
Discoverer Pan-STARRS 1 telescope (Haleakala)

* Pictures

* Orbital Elements

Epoch 2021 Apr. 16.0 TT = JDT 2459320.5
T 2021 May 4.27129 TT                                   Rudenko
q   2.5130932            (2000.0)            P               Q
z  +0.0029689      Peri.  334.97133     -0.17392048     -0.82915329
 +/-0.0000287      Node   120.55598     +0.97501011     -0.22071679
e   0.9925388      Incl.   38.09394     +0.13822787     +0.51360385
From 76 observations 2020 Dec. 24-2021 Mar. 22, mean residual 0".7.

* Magnitudes Graph

        m1 = 13.0 + 5 log d + 10.0 log r

---------------------------------------------------------------------

The orbital elements are published on M.P.E.C. 2021-F115.
The magnitudes graphs are made with Comet for Windows.

---------------------------------------------------------------------

Copyright(C) Seiichi Yoshida (comet@aerith.net). All rights reserved.